Kendall-Tamiami Executive Airport Miami US
ICAO: KTMB
IATA: KTB
Category: Medium
Scheduled Services: No

Elevation: 8 ft
TransAlt. 18000 ft.

Airport Communications:
MIAMI APP/DEP:125.5
ATIS:124
CLNC DEL:133
CTAF:118.9
GND:121.7
MIAMI RDO:122.2
TWR:118.9

KTMB Zoom In..

If you have problems with the map follow the link
https://www.worldairports.se/pages/airport.php?
ICAO=KTMB

Runways:

(A) RW 09L length 5003 ft width 150 ft
---- / hdg 93

(B) RW 09R length 5999 ft width 150 ft
ILS 108.70 / hdg 93

(C) RW 13 length 4001 ft width 150 ft
---- / hdg 133

(D) RW 27L length 5999 ft width 150 ft
---- / hdg 273

(E) RW 27R length 5003 ft width 150 ft
---- / hdg 273

(F) RW 31 length 4001 ft width 150 ft
---- / hdg 313

Location; KTMB
Day. 16 / Time. 11.53 Zulu
* Altimeter: 30.05
* Temperature: 16° c. 60.8°f.
* Wind from: KTM° Speed B kn.
Dewpoint: 13° c.
Visibility: 10 Statute Miles.
Clouds: Overcast 4300 ft.

KTMB 161153Z 34010KT 10SM OVC043 16/13 A3005 RMK AO2 SLP176 70002 T01610128 10200 20156 53009


Wind From KTM°
Speed B kn.

 
 
jpsmedia.com for Web Design worldairports.se 2018   terms of use